Location: Pl�tzky
(52.0521°N, 11.8020°E)
Time: 23:17:18
(UTC+00:00)

Cosmos 1980 Rocket - Pass Details

Date: 22 November 2019
Orbit: 828 x 851 km, 71.0° (Epoch: 15 December)

Event Time Altitude Azimuth Distance (km) Brightness Sun altitude
Rises 16:46:16 0° 197° (SSW) 3,390 5.8 -13.9°
Reaches altitude 10° 16:48:43 10° 195° (SSW) 2,463 5.0 -14.3°
Maximum altitude 16:54:18 64° 115° (ESE) 938 2.2 -15.1°
Enters shadow 16:58:59 15° 37° (NE) 2,134 3.9 -15.8°
